Regional Weather Roundup
Issued by NWS Charleston, SC

Home | Current Version | Previous Version | Text Only | Print | Product List | Glossary On
Versions: 1 2 3 4 5 6 7 8 9 10 11 12 13 14 15 16 17 18 19 20 21 22 23 24 25 26 27 28 29 30 31 32 33 34 35 36 37 38 39 40 41 42 43 44 45 46 47 48 49 50
000
ASUS42 KCHS 020110
RWRCHS
REGIONAL WEATHER ROUNDUP
NATIONAL WEATHER SERVICE CHARLESTON SC
900 PM EDT WED OCT 01 2014

NOTE: "FAIR" INDICATES FEW OR NO CLOUDS BELOW 12,000 FEET WITH NO
SIGNIFICANT WEATHER AND/OR OBSTRUCTIONS TO VISIBILITY.

NOT ALL STATIONS ARE QUALITY CONTROLLED BY THE NATIONAL
WEATHER SERVICE. USE DATA WITH CAUTION...ESPECIALLY
DEWPOINT OBSERVATIONS.

SCZ027-030-031-034>040-042>050-020200-
...SOUTH CAROLINA...

CITY           SKY/WX    TMP DP  RH WIND       PRES   REMARKS
N CHARLESTON   PTCLDY    73  63  70 CALM      30.01R
WATERFRONT PRK   N/A     73 N/A N/A SE6         N/A
FORT JOHNSON   NOT AVBL
MOUNT PLEASANT FAIR      66  66 100 CALM      30.01R
JOHNS ISLAND   CLEAR     70  70 100 CALM      30.02R
PINOPOLIS        N/A     75  64  69 SE3       29.93R
MONCKS CORNER  FAIR      70  68  94 CALM      30.02R
SUMMERVILLE    FAIR      70  68  94 CALM      30.03R
BEAUFORT MCAS  CLEAR     72  68  87 CALM      30.01R
BEAUFORT ARPT  FAIR      70  70 100 CALM      30.01R
HILTON HEAD IS CLEAR     70  68  94 NE3       30.02R
GEORGETOWN     NOT AVBL
WALTERBORO     CLEAR     72 N/A N/A CALM      30.02R
ORANGEBURG     CLEAR     71  64  78 CALM      30.01R
BARNWELL       FAIR      70  64  83 CALM      30.01R
AIKEN          FAIR      72  64  78 SE3       30.04R
MANNING        FAIR      70 N/A N/A CALM      30.01R
KINGSTREE      NOT AVBL
COLUMBIA       PTCLDY    75  62  64 VRB3      29.99R
SUMTER         CLEAR     72  65  80 S2        29.99R
FLORENCE       MOCLDY    73  68  84 CALM      30.01R
MYRTLE BEACH   CLEAR     72  64  78 S6        30.02R
N MYRTLE BEACH CLEAR     69  66  90 CALM      30.02R

$$

GAZ063-065-086>088-099>101-113>116-118-119-134-136>141-150-020200-
...GEORGIA...

CITY           SKY/WX    TMP DP  RH WIND       PRES   REMARKS
SAVANNAH ARPT  PTCLDY    74  64  71 CALM      30.01R
HUNTER AAF     CLEAR     72  66  81 E1        29.99R
FORT STEWART   CLEAR     69  65  86 CALM      30.00R
STATESBORO     NOT AVBL
SYLVANIA       CLEAR     72  70  94 CALM      30.01R
CLAXTON        FAIR      72  70  94 CALM      30.01R
THOMSON        CLEAR     70  70 100 CALM      30.05R
AUGUSTA-BUSH   CLEAR     68  64  87 CALM      29.99R
AUGUSTA-DANIEL CLEAR     79  60  52 CALM      30.01R
SWAINSBORO     FAIR      73  70  88 CALM      30.01R
VIDALIA        PTCLDY    73  68  83 SE6       30.01R
ALMA           CLEAR     71  68  90 E3        30.00R
WAYCROSS       PTCLDY    76  72  87 E5        30.00R
JESUP          MOCLDY    72  70  94 CALM      30.00R
BRUNSWICK      PTCLDY    72  68  88 CALM      30.00R
SAINT SIMONS   PTCLDY    75  67  76 E7        29.99R

$$

SCZ027-028-034-036>038-045-046-048>050-GAZ119-141-020200-
...LAKE AND SUPPLEMENTAL COASTAL OBSERVATIONS...

STATION/POSITION TIME  TEMP    WIND        PRES    WAVE   SWELL
                       AIR SEA DIR/SP/G            HT/PER HT/PER/DIR
                 (UTC) (F)     (DEG/KT/KT) (MB)    (FT/S) (FT/S/D)
UPR LAKE MARION  NOT AVBL
WINYAH BAY       0000   74     180/  2     1015.0S
LAKE MURRAY      0000   78      90/  4/  5 1014.9R
ACE BASIN NERRS  0000   73        CALM     1016.0S
FORT PULASKI     0100   75      90/  7/  9 1016.1R
SAPELO ISLAND    NOT AVBL

$$

ANZ835-935-AMZ111-154-330-350-352-354-374-450-454-472-020200-
...C-MAN AND BUOY OBSERVATIONS...

STATION/POSITION TIME  TEMP    WIND        PRES    WAVE   SWELL
                       AIR SEA DIR/SP/G            HT/PER HT/PER/DIR
                 (UTC) (F)     (DEG/KT/KT) (MB)    (FT/S) (FT/S/D)
FOLLY BEACH CMAN 0000   75     100/  8/  9 1016.3R
BUOY 41004       0100   77 81   60/  8/ 10 1015.8R   2/ 7   2/ 7
BUOY 41008       0100   77 79   80/ 12/ 14 1015.4R   2/ 8   2/ 90/ 8
5E ST. MARYS GA  NOT AVBL
FRYING PAN BUOY  NOT AVBL
BUOY 41025       0100   71      10/ 16/ 17 1015.8R   3/ 8   2/ 80/ 8
CAPE LOOKOUT NC  0000   74      50/  8/ 10 1015.5R
BUOY 41002       0026   80 80   30/ 14/ 16 1014.3R   4/ 6   2/ 50/ 8
BUOY 41010       0100   81 85   60/ 10/ 12 1014.2R   3/ 7   3/ 10/ 7
BUOY 41012       NOT AVBL
ST AUGUSTINE FL  0100   79      50/ 12/ 15 1015.9R
CAPERS NEARSHORE 0000   75     130/  8/ 10   N/A
FRIPP NEARSHORE  NOT AVBL


$$


USA.gov is the U.S. government's official web portal to all federal, state and local government web resources and services.